Powrót do katalogu

KUIPER-00299

AktywnyŁącznośćLEO
NORAD 68864·PAYLOAD·🇺🇸 United States

Wystrzelony Apr 28, 2026 z Cape Canaveral Space Force Station

Loading…

Następne Przeloty (najbliższe 24 godziny)

TLE

ŚwieżeSource: CelesTrak SupGP

Epoka: Sep 15, 2026, 01:51 UTC

1 68864C 26095A   26258.07722222  .00000188  00000+0  24660-4 0  2587
2 68864  51.8987 213.1368 0001292  96.2459 242.3273 14.79858167    15

Śledź KUIPER-00299 w czasie rzeczywistym z AllMySat

Download on the App Store